,,,PA_Meas_PMT16A,,PR_Meas_QMR101_102,,RH_Meas_QMH101,,SR_Meas_QMS101,,TA_Meas_QMH101,,GenWind,,GenWind,
date,time,status,PA,status,PR,status,RH,status,SR,status,TA,status,DirAvg,status,SpdAvg,
2011-11-08, 00:00:04,VALID,1003.9,VALID,0,VALID,91.1956,VALID,0,VALID,23.838,VALID,347,VALID,0.0308594,
2011-11-08, 00:01:04,VALID,1003.9,VALID,0,VALID,91.2185,VALID,0,VALID,23.7991,VALID,347,VALID,0.111719,
2011-11-08, 00:02:04,VALID,1003.9,VALID,0,VALID,91.3635,VALID,0.0815089,VALID,23.7601,VALID,347,VALID,0.120703,
2011-11-08, 00:03:04,VALID,1003.87,VALID,0,VALID,91.3024,VALID,0.0815089,VALID,23.7,VALID,347,VALID,0.0957031,
2011-11-08, 00:04:04,VALID,1003.88,VALID,0,VALID,91.2567,VALID,0.0815089,VALID,23.6823,VALID,347,VALID,0.0339844,
2011-11-08, 00:05:04,VALID,1003.86,VALID,0,VALID,91.0812,VALID,0,VALID,23.6434,VALID,347,VALID,0,
2011-11-08, 00:06:04,VALID,1003.88,VALID,0,VALID,91.0354,VALID,0,VALID,23.6026,VALID,347,VALID,0.0921875,
2011-11-08, 00:07:04,VALID,1003.83,VALID,0,VALID,91.0965,VALID,0.0815089,VALID,23.585,VALID,347,VALID,0.451172,
2011-11-08, 00:08:04,VALID,1003.85,VALID,0,VALID,91.3482,VALID,0.0815089,VALID,23.5637,VALID,347,VALID,0.353516,
2011-11-08, 00:09:04,VALID,1003.83,VALID,0,VALID,91.5389,VALID,0.0815089,VALID,23.5443,VALID,347,VALID,0.298438,
2011-11-08, 00:10:04,VALID,1003.79,VALID,0,VALID,91.4474,VALID,0,VALID,23.5266,VALID,347,VALID,0.441016,
2011-11-08, 00:11:04,VALID,1003.78,VALID,0,VALID,91.5771,VALID,0,VALID,23.4859,VALID,347,VALID,0.459375,
2011-11-08, 00:12:04,VALID,1003.77,VALID,0,VALID,91.7373,VALID,0,VALID,23.408,VALID,347,VALID,0.479688,
2011-11-08, 00:13:04,VALID,1003.76,VALID,0,VALID,91.8746,VALID,0.0815089,VALID,23.4098,VALID,347,VALID,0.524219,
2011-11-08, 00:14:04,VALID,1003.77,VALID,0,VALID,92.0882,VALID,0,VALID,23.3532,VALID,347,VALID,0.571875,
2011-11-08, 00:15:04,VALID,1003.75,VALID,0,VALID,92.3781,VALID,0,VALID,23.3532,VALID,347,VALID,0.533984,
2011-11-08, 00:16:04,VALID,1003.73,VALID,0,VALID,92.5612,VALID,0,VALID,23.2948,VALID,347,VALID,0.465625,
2011-11-08, 00:17:04,VALID,1003.71,VALID,0,VALID,92.7672,VALID,0,VALID,23.2559,VALID,347,VALID,0.523438,
2011-11-08, 00:18:04,VALID,1003.69,VALID,0,VALID,92.9655,VALID,0,VALID,23.2347,VALID,347,VALID,0.479688,
2011-11-08, 00:19:04,VALID,1003.7,VALID,0,VALID,93.0647,VALID,0,VALID,23.217,VALID,348,VALID,0.607813,
2011-11-08, 00:20:04,VALID,1003.66,VALID,0,VALID,93.1944,VALID,0,VALID,23.1975,VALID,355,VALID,0.553906,
2011-11-08, 00:21:04,VALID,1003.65,VALID,0,VALID,93.2783,VALID,0,VALID,23.178,VALID,355,VALID,0.613672,
2011-11-08, 00:22:04,VALID,1003.65,VALID,0,VALID,93.2631,VALID,0,VALID,23.1586,VALID,356,VALID,0.433594,
2011-11-08, 00:23:04,VALID,1003.65,VALID,0,VALID,93.3241,VALID,0,VALID,23.1179,VALID,356,VALID,0.494531,
2011-11-08, 00:24:04,VALID,1003.66,VALID,0,VALID,93.3851,VALID,0,VALID,23.0984,VALID,356,VALID,0.553516,
2011-11-08, 00:25:04,VALID,1003.64,VALID,0,VALID,93.3928,VALID,0,VALID,23.079,VALID,356,VALID,0.43125,
2011-11-08, 00:26:04,VALID,1003.65,VALID,0,VALID,93.3622,VALID,0,VALID,23.0807,VALID,356,VALID,0.475781,
2011-11-08, 00:27:04,VALID,1003.66,VALID,0,VALID,93.3851,VALID,0,VALID,23.0595,VALID,356,VALID,0.358984,
2011-11-08, 00:28:04,VALID,1003.64,VALID,0,VALID,93.3851,VALID,0,VALID,23.0401,VALID,356,VALID,0.459766,
2011-11-08, 00:29:04,VALID,1003.64,VALID,0,VALID,93.3622,VALID,0,VALID,23.0613,VALID,356,VALID,0.408984,
2011-11-08, 00:30:04,VALID,1003.67,VALID,0,VALID,93.4004,VALID,0,VALID,23.0401,VALID,356,VALID,0.247266,
2011-11-08, 00:31:04,VALID,1003.62,VALID,0,VALID,93.469,VALID,0.0815089,VALID,23.0578,VALID,356,VALID,0.266797,
2011-11-08, 00:32:04,VALID,1003.63,VALID,0,VALID,93.3775,VALID,0.0815089,VALID,23.0383,VALID,356,VALID,0.311328,
2011-11-08, 00:33:04,VALID,1003.61,VALID,0,VALID,93.3699,VALID,0.0815089,VALID,23.0578,VALID,356,VALID,0.354688,
2011-11-08, 00:34:04,VALID,1003.65,VALID,0,VALID,93.2478,VALID,0.0815089,VALID,23.0578,VALID,356,VALID,0.249609,
2011-11-08, 00:35:04,VALID,1003.63,VALID,0,VALID,93.0037,VALID,0.0815089,VALID,23.0772,VALID,356,VALID,0.536328,
2011-11-08, 00:36:04,VALID,1003.65,VALID,0,VALID,92.8664,VALID,0.0815089,VALID,23.0984,VALID,356,VALID,0.532422,
2011-11-08, 00:37:04,VALID,1003.64,VALID,0,VALID,92.874,VALID,0.0815089,VALID,23.0967,VALID,356,VALID,0.517969,
2011-11-08, 00:38:04,VALID,1003.64,VALID,0,VALID,92.7672,VALID,0.0815089,VALID,23.0967,VALID,356,VALID,0.571875,
2011-11-08, 00:39:04,VALID,1003.62,VALID,0,VALID,92.813,VALID,0.0815089,VALID,23.0949,VALID,356,VALID,0.407422,
2011-11-08, 00:40:04,VALID,1003.64,VALID,0,VALID,92.7519,VALID,0.0815089,VALID,23.1162,VALID,356,VALID,0.384375,
2011-11-08, 00:41:04,VALID,1003.64,VALID,0,VALID,92.6528,VALID,0.0815089,VALID,23.1374,VALID,356,VALID,0.403516,
2011-11-08, 00:42:04,VALID,1003.61,VALID,0,VALID,92.6375,VALID,0.0815089,VALID,23.1356,VALID,356,VALID,0.394531,
2011-11-08, 00:43:04,VALID,1003.63,VALID,0,VALID,92.6375,VALID,0.0815089,VALID,23.1568,VALID,356,VALID,0.401953,
2011-11-08, 00:44:04,VALID,1003.63,VALID,0,VALID,92.607,VALID,0.0815089,VALID,23.1162,VALID,356,VALID,0.382031,
2011-11-08, 00:45:04,VALID,1003.61,VALID,0,VALID,92.6222,VALID,0.0815089,VALID,23.1162,VALID,356,VALID,0.413281,
2011-11-08, 00:46:04,VALID,1003.62,VALID,0,VALID,92.6985,VALID,0.0815089,VALID,23.1162,VALID,356,VALID,0.476563,
2011-11-08, 00:47:04,VALID,1003.59,VALID,0,VALID,92.729,VALID,0.0815089,VALID,23.0755,VALID,356,VALID,0.330078,
2011-11-08, 00:48:04,VALID,1003.59,VALID,0,VALID,92.8816,VALID,0.0815089,VALID,23.0967,VALID,356,VALID,0.453125,
2011-11-08, 00:49:04,VALID,1003.55,VALID,0,VALID,92.8892,VALID,0.0815089,VALID,23.056,VALID,356,VALID,0.455859,
2011-11-08, 00:50:04,VALID,1003.54,VALID,0,VALID,92.9579,VALID,0.0815089,VALID,23.0755,VALID,356,VALID,0.435547,
2011-11-08, 00:51:04,VALID,1003.53,VALID,0,VALID,93.0571,VALID,0.0815089,VALID,23.0967,VALID,356,VALID,0.484766,
2011-11-08, 00:52:04,VALID,1003.5,VALID,0,VALID,93.1563,VALID,0.0815089,VALID,23.0967,VALID,356,VALID,0.428906,
2011-11-08, 00:53:04,VALID,1003.49,VALID,0,VALID,93.1868,VALID,0.0815089,VALID,23.0967,VALID,356,VALID,0.423438,
2011-11-08, 00:54:04,VALID,1003.45,VALID,0,VALID,93.2783,VALID,0.0815089,VALID,23.0772,VALID,356,VALID,0.573047,
2011-11-08, 00:55:04,VALID,1003.43,VALID,0,VALID,93.347,VALID,0.0815089,VALID,23.0967,VALID,356,VALID,0.446484,
2011-11-08, 00:56:04,VALID,1003.41,VALID,0,VALID,93.3317,VALID,0.0815089,VALID,23.056,VALID,4,VALID,0.604297,
2011-11-08, 00:57:04,VALID,1003.41,VALID,0,VALID,93.3699,VALID,0.0815089,VALID,23.0578,VALID,4,VALID,0.475391,
2011-11-08, 00:58:04,VALID,1003.38,VALID,0,VALID,93.4309,VALID,0.0815089,VALID,23.0578,VALID,4,VALID,0.501953,
2011-11-08, 00:59:04,VALID,1003.39,VALID,0,VALID,93.4385,VALID,0.0815089,VALID,23.056,VALID,4,VALID,0.332422,
2011-11-08, 01:00:04,VALID,1003.39,VALID,0,VALID,93.4233,VALID,0.163018,VALID,23.0772,VALID,4,VALID,0.340234,
2011-11-08, 01:01:04,VALID,1003.4,VALID,0,VALID,93.4614,VALID,0,VALID,23.0595,VALID,4,VALID,0.133984,
2011-11-08, 01:02:04,VALID,1003.37,VALID,0,VALID,93.3775,VALID,0,VALID,23.0595,VALID,4,VALID,0,
2011-11-08, 01:03:04,VALID,1003.4,VALID,0,VALID,93.3546,VALID,0,VALID,23.0383,VALID,4,VALID,0,
2011-11-08, 01:04:04,VALID,1003.39,VALID,0,VALID,93.2859,VALID,0,VALID,23.0595,VALID,4,VALID,0,
2011-11-08, 01:05:04,VALID,1003.36,VALID,0,VALID,93.2325,VALID,0,VALID,23.1002,VALID,4,VALID,0,
2011-11-08, 01:06:04,VALID,1003.38,VALID,0,VALID,93.3088,VALID,0,VALID,23.079,VALID,4,VALID,0,
2011-11-08, 01:07:04,VALID,1003.37,VALID,0,VALID,93.3012,VALID,0,VALID,23.079,VALID,4,VALID,0,
2011-11-08, 01:08:04,VALID,1003.34,VALID,0,VALID,93.2707,VALID,0.0815089,VALID,23.0383,VALID,4,VALID,0,
2011-11-08, 01:09:04,VALID,1003.3,VALID,0,VALID,93.3165,VALID,0,VALID,23.079,VALID,4,VALID,0.389453,
2011-11-08, 01:10:04,VALID,1003.33,VALID,0,VALID,93.3775,VALID,0,VALID,23.079,VALID,4,VALID,0.242188,
2011-11-08, 01:11:04,VALID,1003.32,VALID,0,VALID,93.408,VALID,0,VALID,23.0595,VALID,4,VALID,0.0980469,
2011-11-08, 01:12:04,VALID,1003.32,VALID,0,VALID,93.4385,VALID,0,VALID,23.079,VALID,4,VALID,0,
2011-11-08, 01:13:04,VALID,1003.31,VALID,0,VALID,93.3699,VALID,0,VALID,23.0383,VALID,4,VALID,0.386328,
2011-11-08, 01:14:04,VALID,1003.36,VALID,0,VALID,93.3394,VALID,0,VALID,23.0595,VALID,4,VALID,0.367578,
2011-11-08, 01:15:04,VALID,1003.34,VALID,0,VALID,93.3775,VALID,0,VALID,23.0383,VALID,4,VALID,0.0808594,
2011-11-08, 01:16:04,VALID,1003.34,VALID,0,VALID,93.3394,VALID,0,VALID,23.0595,VALID,4,VALID,0,
2011-11-08, 01:17:04,VALID,1003.33,VALID,0,VALID,93.3241,VALID,0,VALID,23.079,VALID,4,VALID,0,
2011-11-08, 01:18:04,VALID,1003.33,VALID,0,VALID,93.3165,VALID,0,VALID,23.0984,VALID,4,VALID,0,
2011-11-08, 01:19:04,VALID,1003.31,VALID,0,VALID,93.2173,VALID,0,VALID,23.0984,VALID,4,VALID,0,
2011-11-08, 01:20:04,VALID,1003.31,VALID,0,VALID,93.0723,VALID,0,VALID,23.0984,VALID,4,VALID,0.214062,
2011-11-08, 01:21:04,VALID,1003.29,VALID,0,VALID,93.1868,VALID,0,VALID,23.1179,VALID,4,VALID,0,
2011-11-08, 01:22:04,VALID,1003.27,VALID,0,VALID,93.3088,VALID,0,VALID,23.1179,VALID,4,VALID,0.469531,
2011-11-08, 01:23:04,VALID,1003.24,VALID,0,VALID,93.408,VALID,0,VALID,23.1374,VALID,4,VALID,0.261719,
2011-11-08, 01:24:04,VALID,1003.24,VALID,0,VALID,93.3546,VALID,0,VALID,23.1179,VALID,4,VALID,0.333203,
2011-11-08, 01:25:04,VALID,1003.24,VALID,0,VALID,93.4004,VALID,0,VALID,23.1374,VALID,4,VALID,0.305469,
2011-11-08, 01:26:04,VALID,1003.24,VALID,0,VALID,93.3699,VALID,0.0815089,VALID,23.1179,VALID,4,VALID,0.459766,
2011-11-08, 01:27:04,VALID,1003.25,VALID,0,VALID,93.4462,VALID,0,VALID,23.0984,VALID,4,VALID,0.450781,
2011-11-08, 01:28:04,VALID,1003.24,VALID,0,VALID,93.5148,VALID,0,VALID,23.1179,VALID,4,VALID,0.361719,
2011-11-08, 01:29:04,VALID,1003.24,VALID,0,VALID,93.5453,VALID,0,VALID,23.1179,VALID,4,VALID,0.369141,
2011-11-08, 01:30:04,VALID,1003.25,VALID,0,VALID,93.6445,VALID,0,VALID,23.1179,VALID,4,VALID,0.337109,
2011-11-08, 01:31:04,VALID,1003.22,VALID,0,VALID,93.6598,VALID,0,VALID,23.1179,VALID,4,VALID,0.34375,
2011-11-08, 01:32:04,VALID,1003.21,VALID,0,VALID,93.7361,VALID,0,VALID,23.1374,VALID,4,VALID,0.165625,
2011-11-08, 01:33:04,VALID,1003.19,VALID,0,VALID,93.7666,VALID,0.0815089,VALID,23.1763,VALID,4,VALID,0.0910156,
2011-11-08, 01:34:04,VALID,1003.17,VALID,0,VALID,93.7284,VALID,0,VALID,23.1356,VALID,4,VALID,0,
2011-11-08, 01:35:04,VALID,1003.15,VALID,0,VALID,93.7971,VALID,0,VALID,23.1568,VALID,4,VALID,0,
2011-11-08, 01:36:04,VALID,1003.12,VALID,0,VALID,93.7971,VALID,0.0815089,VALID,23.1551,VALID,4,VALID,0,
2011-11-08, 01:37:04,VALID,1003.11,VALID,0,VALID,93.82,VALID,0,VALID,23.1957,VALID,4,VALID,0,
2011-11-08, 01:38:04,VALID,1003.09,VALID,0,VALID,93.7589,VALID,0,VALID,23.1745,VALID,4,VALID,0,
2011-11-08, 01:39:04,VALID,1003.05,VALID,0,VALID,93.6216,VALID,0,VALID,23.2152,VALID,4,VALID,0.419531,
2011-11-08, 01:40:04,VALID,1003,VALID,0,VALID,93.675,VALID,0,VALID,23.2364,VALID,4,VALID,0.217187,
2011-11-08, 01:41:04,VALID,1003.01,VALID,0,VALID,93.6445,VALID,0.0815089,VALID,23.2152,VALID,4,VALID,0.135156,
2011-11-08, 01:42:04,VALID,1002.97,VALID,0,VALID,93.7055,VALID,0.0815089,VALID,23.2541,VALID,4,VALID,0.325391,
2011-11-08, 01:43:04,VALID,1002.96,VALID,0,VALID,93.6598,VALID,0,VALID,23.2541,VALID,4,VALID,0.411328,
2011-11-08, 01:44:04,VALID,1002.95,VALID,0,VALID,93.6674,VALID,0,VALID,23.2329,VALID,4,VALID,0.385156,
2011-11-08, 01:45:04,VALID,1002.93,VALID,0,VALID,93.5148,VALID,0,VALID,23.2541,VALID,4,VALID,0.232422,
2011-11-08, 01:46:04,VALID,1002.92,VALID,0,VALID,93.4767,VALID,0,VALID,23.2948,VALID,4,VALID,0.403906,
2011-11-08, 01:47:04,VALID,1002.9,VALID,0,VALID,93.3546,VALID,0,VALID,23.2736,VALID,4,VALID,0.306641,
2011-11-08, 01:48:04,VALID,1002.87,VALID,0,VALID,93.3775,VALID,0,VALID,23.2736,VALID,4,VALID,0.465234,
2011-11-08, 01:49:04,VALID,1002.85,VALID,0,VALID,93.3851,VALID,0,VALID,23.2931,VALID,4,VALID,0.559375,
2011-11-08, 01:50:04,VALID,1002.82,VALID,0,VALID,93.3622,VALID,0,VALID,23.2931,VALID,4,VALID,0.675391,
2011-11-08, 01:51:04,VALID,1002.79,VALID,0,VALID,93.4538,VALID,0,VALID,23.2931,VALID,4,VALID,0.549609,
2011-11-08, 01:52:04,VALID,1002.8,VALID,0,VALID,93.469,VALID,0.0815089,VALID,23.3125,VALID,4,VALID,0.576172,
2011-11-08, 01:53:04,VALID,1002.77,VALID,0,VALID,93.5606,VALID,0,VALID,23.2718,VALID,4,VALID,0.438281,
2011-11-08, 01:54:04,VALID,1002.75,VALID,0,VALID,93.5224,VALID,0.0815089,VALID,23.332,VALID,4,VALID,0.40625,
2011-11-08, 01:55:04,VALID,1002.69,VALID,0,VALID,93.4919,VALID,0,VALID,23.332,VALID,4,VALID,0.322266,
2011-11-08, 01:56:04,VALID,1002.68,VALID,0,VALID,93.4996,VALID,0.0815089,VALID,23.3497,VALID,4,VALID,0.339453,
2011-11-08, 01:57:04,VALID,1002.64,VALID,0,VALID,93.4843,VALID,0,VALID,23.3709,VALID,4,VALID,0.451562,
2011-11-08, 01:58:04,VALID,1002.63,VALID,0,VALID,93.4614,VALID,0.0815089,VALID,23.3709,VALID,4,VALID,0.209375,
2011-11-08, 01:59:04,VALID,1002.61,VALID,0,VALID,93.408,VALID,0,VALID,23.3691,VALID,4,VALID,0.191406,
2011-11-08, 02:00:04,VALID,1002.61,VALID,0,VALID,93.4843,VALID,0,VALID,23.4098,VALID,4,VALID,0.205469,
2011-11-08, 02:01:04,VALID,1002.6,VALID,0,VALID,93.4233,VALID,0,VALID,23.4293,VALID,4,VALID,0.235547,
2011-11-08, 02:02:04,VALID,1002.58,VALID,0,VALID,93.3622,VALID,0.0815089,VALID,23.4505,VALID,4,VALID,0.246875,
2011-11-08, 02:03:04,VALID,1002.56,VALID,0,VALID,93.3317,VALID,0,VALID,23.4487,VALID,4,VALID,0.153125,
2011-11-08, 02:04:04,VALID,1002.57,VALID,0,VALID,93.2631,VALID,0,VALID,23.4293,VALID,4,VALID,0.000390625,
2011-11-08, 02:05:04,VALID,1002.55,VALID,0,VALID,93.2478,VALID,0.0815089,VALID,23.4487,VALID,4,VALID,0.342187,
2011-11-08, 02:06:04,VALID,1002.52,VALID,0,VALID,93.1563,VALID,0,VALID,23.4275,VALID,4,VALID,0.472656,
2011-11-08, 02:07:04,VALID,1002.52,VALID,0,VALID,93.1791,VALID,0,VALID,23.4487,VALID,4,VALID,0.291797,
2011-11-08, 02:08:04,VALID,1002.54,VALID,0,VALID,93.1639,VALID,0,VALID,23.4487,VALID,4,VALID,0.405078,
2011-11-08, 02:09:04,VALID,1002.54,VALID,0,VALID,93.2554,VALID,0,VALID,23.4487,VALID,4,VALID,0.30625,
2011-11-08, 02:10:04,VALID,1002.54,VALID,0,VALID,93.1868,VALID,0,VALID,23.408,VALID,4,VALID,0.252344,
2011-11-08, 02:11:04,VALID,1002.52,VALID,0,VALID,93.1563,VALID,0,VALID,23.4098,VALID,4,VALID,0.477344,
2011-11-08, 02:12:04,VALID,1002.5,VALID,0,VALID,93.2707,VALID,0,VALID,23.4293,VALID,4,VALID,0.492188,
2011-11-08, 02:13:04,VALID,1002.51,VALID,0,VALID,93.2859,VALID,0,VALID,23.3886,VALID,4,VALID,0.641406,
2011-11-08, 02:14:04,VALID,1002.5,VALID,0,VALID,93.3165,VALID,0,VALID,23.3904,VALID,4,VALID,0.729297,
2011-11-08, 02:15:04,VALID,1002.5,VALID,0,VALID,93.3622,VALID,0,VALID,23.3709,VALID,4,VALID,0.764453,
2011-11-08, 02:16:04,VALID,1002.5,VALID,0,VALID,93.4538,VALID,0,VALID,23.3709,VALID,4,VALID,0.623828,
2011-11-08, 02:17:04,VALID,1002.52,VALID,0,VALID,93.469,VALID,0,VALID,23.3709,VALID,4,VALID,0.530859,
2011-11-08, 02:18:04,VALID,1002.52,VALID,0,VALID,93.5072,VALID,0,VALID,23.3497,VALID,4,VALID,0.491406,
2011-11-08, 02:19:04,VALID,1002.51,VALID,0,VALID,93.5301,VALID,0,VALID,23.3709,VALID,4,VALID,0.582422,
2011-11-08, 02:20:04,VALID,1002.48,VALID,0,VALID,93.553,VALID,0,VALID,23.3514,VALID,4,VALID,0.495703,
2011-11-08, 02:21:04,VALID,1002.5,VALID,0,VALID,93.4996,VALID,0,VALID,23.3709,VALID,4,VALID,0.498828,
2011-11-08, 02:22:04,VALID,1002.48,VALID,0,VALID,93.5453,VALID,0,VALID,23.3709,VALID,4,VALID,0.530859,
2011-11-08, 02:23:04,VALID,1002.46,VALID,0,VALID,93.5835,VALID,0,VALID,23.3904,VALID,4,VALID,0.549219,
2011-11-08, 02:24:04,VALID,1002.49,VALID,0,VALID,93.469,VALID,0,VALID,23.3904,VALID,4,VALID,0.455859,
2011-11-08, 02:25:04,VALID,1002.45,VALID,0,VALID,93.4309,VALID,0,VALID,23.4098,VALID,4,VALID,0.367188,
2011-11-08, 02:26:04,VALID,1002.43,VALID,0,VALID,93.408,VALID,0,VALID,23.4311,VALID,4,VALID,0.326953,
2011-11-08, 02:27:04,VALID,1002.45,VALID,0,VALID,93.4233,VALID,0,VALID,23.4293,VALID,4,VALID,0.323047,
2011-11-08, 02:28:04,VALID,1002.46,VALID,0,VALID,93.408,VALID,0,VALID,23.408,VALID,4,VALID,0.387891,
2011-11-08, 02:29:04,VALID,1002.46,VALID,0,VALID,93.408,VALID,0,VALID,23.4505,VALID,4,VALID,0.450781,
2011-11-08, 02:30:04,VALID,1002.45,VALID,0,VALID,93.4004,VALID,0,VALID,23.4098,VALID,4,VALID,0.269922,
2011-11-08, 02:31:04,VALID,1002.48,VALID,0,VALID,93.4385,VALID,0,VALID,23.4293,VALID,4,VALID,0.316016,
2011-11-08, 02:32:04,VALID,1002.48,VALID,0,VALID,93.4767,VALID,0,VALID,23.4293,VALID,4,VALID,0.459375,
2011-11-08, 02:33:04,VALID,1002.49,VALID,0,VALID,93.5072,VALID,0,VALID,23.4293,VALID,4,VALID,0.389844,
2011-11-08, 02:34:04,VALID,1002.5,VALID,0,VALID,93.4996,VALID,0,VALID,23.4505,VALID,4,VALID,0.397656,
2011-11-08, 02:35:04,VALID,1002.53,VALID,0,VALID,93.5606,VALID,0,VALID,23.4098,VALID,4,VALID,0.313281,
2011-11-08, 02:36:04,VALID,1002.5,VALID,0,VALID,93.6369,VALID,0,VALID,23.3886,VALID,4,VALID,0.410937,
2011-11-08, 02:37:04,VALID,1002.49,VALID,0,VALID,93.6445,VALID,0,VALID,23.3904,VALID,4,VALID,0.528125,
2011-11-08, 02:38:04,VALID,1002.49,VALID,0,VALID,93.6674,VALID,0,VALID,23.4328,VALID,4,VALID,0.567578,
2011-11-08, 02:39:04,VALID,1002.48,VALID,0,VALID,93.6979,VALID,0,VALID,23.3904,VALID,4,VALID,0.541016,
2011-11-08, 02:40:04,VALID,1002.45,VALID,0,VALID,93.7818,VALID,0,VALID,23.3709,VALID,4,VALID,0.619141,
2011-11-08, 02:41:04,VALID,1002.44,VALID,0,VALID,93.8581,VALID,0,VALID,23.3514,VALID,4,VALID,0.569531,
2011-11-08, 02:42:04,VALID,1002.42,VALID,0,VALID,93.8734,VALID,0,VALID,23.3514,VALID,4,VALID,0.454297,
2011-11-08, 02:43:04,VALID,1002.41,VALID,0,VALID,93.8734,VALID,0,VALID,23.3514,VALID,4,VALID,0.472656,
2011-11-08, 02:44:04,VALID,1002.41,VALID,0,VALID,93.9344,VALID,0,VALID,23.3514,VALID,4,VALID,0.578125,
2011-11-08, 02:45:04,VALID,1002.38,VALID,0,VALID,93.9725,VALID,0,VALID,23.3514,VALID,3,VALID,0.708594,
2011-11-08, 02:46:04,VALID,1002.38,VALID,0,VALID,93.942,VALID,0,VALID,23.3514,VALID,3,VALID,0.669531,
2011-11-08, 02:47:04,VALID,1002.35,VALID,0,VALID,93.9725,VALID,0,VALID,23.3709,VALID,3,VALID,0.65625,
2011-11-08, 02:48:04,VALID,1002.35,VALID,0,VALID,94.0336,VALID,0,VALID,23.3709,VALID,3,VALID,0.576953,
2011-11-08, 02:49:04,VALID,1002.36,VALID,0,VALID,94.0641,VALID,0,VALID,23.3904,VALID,3,VALID,0.623438,
2011-11-08, 02:50:04,VALID,1002.34,VALID,0,VALID,94.0107,VALID,0,VALID,23.3904,VALID,1,VALID,0.687109,
2011-11-08, 02:51:04,VALID,1002.33,VALID,0,VALID,93.9497,VALID,0,VALID,23.3921,VALID,359,VALID,0.759766,
2011-11-08, 02:52:04,VALID,1002.33,VALID,0,VALID,93.9191,VALID,0,VALID,23.3921,VALID,359,VALID,0.739062,
2011-11-08, 02:53:04,VALID,1002.32,VALID,0,VALID,93.9039,VALID,0,VALID,23.3514,VALID,358,VALID,0.720703,
2011-11-08, 02:54:04,VALID,1002.34,VALID,0,VALID,93.9497,VALID,0,VALID,23.3709,VALID,356,VALID,0.835156,
2011-11-08, 02:55:04,VALID,1002.32,VALID,0,VALID,93.942,VALID,0,VALID,23.3727,VALID,353,VALID,0.659375,
2011-11-08, 02:56:04,VALID,1002.33,VALID,0,VALID,93.8963,VALID,0,VALID,23.3302,VALID,353,VALID,0.683203,
2011-11-08, 02:57:04,VALID,1002.33,VALID,0,VALID,93.9115,VALID,0,VALID,23.3514,VALID,353,VALID,0.58125,
2011-11-08, 02:58:04,VALID,1002.37,VALID,0,VALID,93.9802,VALID,0,VALID,23.3709,VALID,353,VALID,0.517187,
2011-11-08, 02:59:04,VALID,1002.37,VALID,0,VALID,93.9191,VALID,0,VALID,23.3514,VALID,353,VALID,0.39375,
2011-11-08, 03:00:04,VALID,1002.37,VALID,0,VALID,93.9573,VALID,0,VALID,23.3904,VALID,353,VALID,0.438281,
2011-11-08, 03:01:04,VALID,1002.35,VALID,0,VALID,93.9191,VALID,0,VALID,23.3904,VALID,353,VALID,0.367188,
2011-11-08, 03:02:04,VALID,1002.36,VALID,0,VALID,93.9191,VALID,0,VALID,23.3904,VALID,353,VALID,0.446875,
2011-11-08, 03:03:04,VALID,1002.37,VALID,0,VALID,93.9039,VALID,0,VALID,23.3904,VALID,353,VALID,0.529297,
2011-11-08, 03:04:04,VALID,1002.38,VALID,0,VALID,93.8429,VALID,0,VALID,23.4098,VALID,353,VALID,0.396875,
2011-11-08, 03:05:04,VALID,1002.38,VALID,0,VALID,93.7818,VALID,0,VALID,23.4293,VALID,353,VALID,0.400781,
2011-11-08, 03:06:04,VALID,1002.36,VALID,0,VALID,93.7742,VALID,0,VALID,23.408,VALID,353,VALID,0.377344,
2011-11-08, 03:07:04,VALID,1002.39,VALID,0,VALID,93.7818,VALID,0,VALID,23.47,VALID,353,VALID,0.525391,
2011-11-08, 03:08:04,VALID,1002.35,VALID,0,VALID,93.7361,VALID,0,VALID,23.4682,VALID,353,VALID,0.371094,
2011-11-08, 03:09:04,VALID,1002.36,VALID,0,VALID,93.7284,VALID,0,VALID,23.5089,VALID,353,VALID,0.504297,
2011-11-08, 03:10:04,VALID,1002.38,VALID,0,VALID,93.5911,VALID,0,VALID,23.4877,VALID,353,VALID,0.620703,
2011-11-08, 03:11:04,VALID,1002.38,VALID,0,VALID,93.5682,VALID,0,VALID,23.5284,VALID,353,VALID,0.646875,
2011-11-08, 03:12:04,VALID,1002.38,VALID,0,VALID,93.5224,VALID,0,VALID,23.4877,VALID,353,VALID,0.575,
2011-11-08, 03:13:04,VALID,1002.4,VALID,0,VALID,93.4843,VALID,0,VALID,23.5284,VALID,353,VALID,0.564062,
2011-11-08, 03:14:04,VALID,1002.4,VALID,0,VALID,93.5148,VALID,0,VALID,23.5089,VALID,352,VALID,0.448438,
2011-11-08, 03:15:04,VALID,1002.4,VALID,0,VALID,93.4919,VALID,0,VALID,23.4877,VALID,353,VALID,0.5375,
2011-11-08, 03:16:04,VALID,1002.43,VALID,0,VALID,93.5148,VALID,0,VALID,23.4859,VALID,353,VALID,0.438672,
2011-11-08, 03:17:04,VALID,1002.44,VALID,0,VALID,93.553,VALID,0.0815089,VALID,23.4859,VALID,353,VALID,0.516016,
2011-11-08, 03:18:04,VALID,1002.42,VALID,0,VALID,93.5835,VALID,0,VALID,23.4859,VALID,353,VALID,0.351172,
2011-11-08, 03:19:04,VALID,1002.46,VALID,0,VALID,93.5377,VALID,0,VALID,23.4877,VALID,353,VALID,0.447266,
2011-11-08, 03:20:04,VALID,1002.46,VALID,0,VALID,93.5377,VALID,0,VALID,23.4877,VALID,353,VALID,0.432813,
2011-11-08, 03:21:04,VALID,1002.46,VALID,0,VALID,93.4996,VALID,0.0815089,VALID,23.5071,VALID,353,VALID,0.373828,
2011-11-08, 03:22:04,VALID,1002.45,VALID,0,VALID,93.469,VALID,0,VALID,23.4664,VALID,353,VALID,0.421484,
2011-11-08, 03:23:04,VALID,1002.46,VALID,0,VALID,93.4996,VALID,0,VALID,23.4664,VALID,353,VALID,0.647266,
2011-11-08, 03:24:04,VALID,1002.44,VALID,0,VALID,93.5453,VALID,0,VALID,23.4664,VALID,353,VALID,0.663281,
2011-11-08, 03:25:04,VALID,1002.42,VALID,0,VALID,93.5758,VALID,0,VALID,23.4682,VALID,353,VALID,0.6375,
2011-11-08, 03:26:04,VALID,1002.39,VALID,0,VALID,93.5835,VALID,0,VALID,23.4487,VALID,353,VALID,0.608594,
2011-11-08, 03:27:04,VALID,1002.4,VALID,0,VALID,93.6674,VALID,0,VALID,23.4275,VALID,353,VALID,0.573438,
2011-11-08, 03:28:04,VALID,1002.37,VALID,0,VALID,93.7437,VALID,0,VALID,23.3886,VALID,353,VALID,0.496484,
2011-11-08, 03:29:04,VALID,1002.37,VALID,0,VALID,93.8123,VALID,0,VALID,23.3904,VALID,353,VALID,0.547656,
2011-11-08, 03:30:04,VALID,1002.37,VALID,0,VALID,93.9115,VALID,0.0815089,VALID,23.3904,VALID,353,VALID,0.421875,
2011-11-08, 03:31:04,VALID,1002.37,VALID,0,VALID,93.9344,VALID,0,VALID,23.3727,VALID,353,VALID,0.422656,
2011-11-08, 03:32:04,VALID,1002.4,VALID,0,VALID,94.0031,VALID,0,VALID,23.3514,VALID,353,VALID,0.364062,
2011-11-08, 03:33:04,VALID,1002.38,VALID,0,VALID,94.0107,VALID,0,VALID,23.3514,VALID,353,VALID,0.414063,
2011-11-08, 03:34:04,VALID,1002.4,VALID,0,VALID,94.0794,VALID,0,VALID,23.3514,VALID,353,VALID,0.405469,
2011-11-08, 03:35:04,VALID,1002.4,VALID,0,VALID,94.0794,VALID,0,VALID,23.332,VALID,353,VALID,0.353906,
2011-11-08, 03:36:04,VALID,1002.43,VALID,0,VALID,94.1328,VALID,0,VALID,23.3337,VALID,353,VALID,0.497266,
2011-11-08, 03:37:04,VALID,1002.41,VALID,0,VALID,94.1862,VALID,0,VALID,23.3125,VALID,353,VALID,0.558203,
2011-11-08, 03:38:04,VALID,1002.42,VALID,0,VALID,94.2624,VALID,0,VALID,23.3337,VALID,356,VALID,0.699609,
2011-11-08, 03:39:04,VALID,1002.46,VALID,0,VALID,94.2624,VALID,0,VALID,23.3514,VALID,357,VALID,0.554297,
2011-11-08, 03:40:04,VALID,1002.46,VALID,0,VALID,94.2548,VALID,0,VALID,23.3125,VALID,357,VALID,0.570703,
2011-11-08, 03:41:04,VALID,1002.47,VALID,0,VALID,94.2548,VALID,0,VALID,23.332,VALID,357,VALID,0.5,
2011-11-08, 03:42:04,VALID,1002.5,VALID,0,VALID,94.293,VALID,0,VALID,23.332,VALID,357,VALID,0.423828,
2011-11-08, 03:43:04,VALID,1002.5,VALID,0,VALID,94.2319,VALID,0,VALID,23.332,VALID,357,VALID,0.526563,